Home   Weather   Soest   Past weeks

Flag for Germany Past Weather in Soest, North Rhine-Westphalia, Germany — Yesterday and Last 2 Weeks

Now
79 °F

Passing clouds.


Feels Like: 79 °F
Forecast: 54 / 74 °F
Wind: 10 mph from West

Location: Dortmund / Wickede

Current Time: Aug 31, 2016 at 4:37:36 PM

Latest Report: Aug 31, 2016 at 3:50 PM


Visibility: N/A

Pressure: 30.12 "Hg

Humidity: 32%

Dew Point: 46 °F

Location of SoestLocation

Past Weather in Soest — Graph

°F

Soest Temperature Yesterday

Maximum temperature yesterday: 73 °F (at 4:50 PM)
Minimum temperature yesterday: 50 °F (at 6:50 AM)
Average temperature yesterday: 64 °F

High & Low Weather Summary for the Past Weeks

 TemperatureHumidityPressure
High91 °F (Aug 25, 3:50 PM)94% (Aug 30, 6:50 AM)30.36 "Hg (Aug 30, 6:50 AM)
Low48 °F (Aug 17, 5:50 AM)16% (Aug 25, 3:50 PM)29.80 "Hg (Aug 18, 2:50 PM)
Average70 °F54%30.05 "Hg
* Reported Aug 16 3:20 PM — Aug 31 3:20 PM, Soest, Weather by CustomWeather, © 2016

Note: Actual official high and low records may vary slightly from our data, if they occured in-between our weather recording intervals... More about our weather records

Advertising

Soest Weather History for the Previous 24 Hours

Scroll right to see more
 ConditionsComfort  
Time TempWeatherWind HumidityBarometerVisibility
3:20 PM
Wed, Aug 31
81 °FPassing clouds.9 mph32%30.12 "HgN/A
2:50 PM79 °FPassing clouds.9 mph32%30.12 "HgN/A
2:20 PM79 °FPassing clouds.8 mph34%30.12 "HgN/A
1:50 PM79 °FPassing clouds.9 mph32%30.12 "HgN/A
1:20 PM77 °FSunny.5 mph39%30.12 "Hg10 mi
12:50 PM75 °FPassing clouds.7 mph39%30.15 "HgN/A
12:20 PM73 °FPassing clouds.5 mph36%30.15 "HgN/A
11:50 AM73 °FPassing clouds.6 mph38%30.15 "HgN/A
11:20 AM72 °FPassing clouds.6 mph41%30.15 "HgN/A
10:50 AM70 °FPassing clouds.5 mph46%30.15 "HgN/A
10:20 AM68 °FPassing clouds.5 mph46%30.15 "HgN/A
9:50 AM66 °FPassing clouds.5 mph46%30.15 "HgN/A
9:20 AM64 °FPassing clouds.5 mph49%30.18 "HgN/A
8:50 AM61 °FPassing clouds.5 mph55%30.15 "HgN/A
8:20 AM57 °FPassing clouds.6 mph63%30.15 "HgN/A
7:50 AM55 °FPassing clouds.5 mph63%30.18 "HgN/A
7:20 AM54 °FPassing clouds.7 mph67%30.18 "HgN/A
6:50 AM52 °FClear.8 mph72%30.18 "Hg10 mi
6:20 AM52 °FClear.8 mph72%30.18 "Hg10 mi
5:50 AM52 °FClear.9 mph72%30.18 "Hg10 mi
5:20 AM52 °FClear.7 mph72%30.18 "Hg10 mi
9:50 PM
Tue, Aug 30
63 °FClear.2 mph49%30.24 "Hg10 mi
9:20 PM63 °FClear.5 mph45%30.24 "Hg10 mi
8:50 PM64 °FPassing clouds.6 mph46%30.24 "HgN/A
8:20 PM66 °FSunny.7 mph40%30.24 "Hg10 mi
7:50 PM68 °FSunny.7 mph35%30.24 "Hg10 mi
7:20 PM70 °FPassing clouds.8 mph33%30.24 "HgN/A
6:50 PM72 °FPassing clouds.8 mph31%30.24 "HgN/A
6:20 PM72 °FSunny.8 mph31%30.27 "Hg10 mi
5:50 PM72 °FPassing clouds.9 mph31%30.27 "HgN/A
5:20 PM72 °FPassing clouds.8 mph31%30.27 "HgN/A
4:50 PM73 °FPassing clouds.6 mph27%30.27 "HgN/A
4:20 PM72 °FPassing clouds.7 mph31%30.27 "HgN/A
Weather by CustomWeather, © 2016

See weather overviewHow to use our weather pages